NOAA 16 DEB, 41374

Orbit data source: Space-Track

NOAA 16 DEB, 41374 is space debris in LEO originally from a launch on Thu, 21 Sep 2000 UTC launched from the Air Force Western Test Range (AFWTR). Debris objects in space refer to the collection of defunct objects orbiting the Earth. Examples of debris include non-operational satellites, rocket bodies, and fragments generated from explosions, collisions, or faulty payload assembly.

Loading next visibility...
NOAA 16 DEB details
Identifier
41374, 2000-055JT
Orbit
LEO
Last TLE update2 days ago
Origin
Flag of USNOAA (US)
ManufacturerUnknown
MissionSpacecraft
Bus & MotorUnknown
MassUnknown
Launch date (UTC)
2000-09-21 (24 years ago)
Launch vehicleUnknown
Launch site
Air Force Western Test Range (AFWTR)
Object type
Payload
Rocket body
Debris
Shape & HBRUnknown
Radar Cross SectionSmall (<0.1 m²)

Expand to show TLE details & history

TLE from 2 days ago
0 NOAA 16 DEB
1 41374U 00055JT  24334.98836185  .00008172  00000-0  41787-2 0  9990
2 41374  98.7463  22.6825 0033191 345.9375  14.0872 14.15495147455508
Epoch: 2024-11-29T23:43Z
Definitive object data (Epoch: 2024-11-29T23:43:14.463Z)
Latitude-0.00001°
Longitude-42.47514°
Altitude820.296 km
Speed7.455 km/s
True Right ascension01h 30m 43s
True Declination0° 00' 00"
Sunlit
Object was in full shadow at TLE epoch
Visualization TLE readout
Latitude-1.11987°
Longitude139.67639°
Altitude865.784 km
Speed7.408 km/s
Apparent Right ascension15h 28m 39s
Apparent Declination-22° 46' 31"
Sunlit
Object is in daylight
Visualization observer readout
Local Sidereal Time06:19:40
Azimuth77.608° E
Elevation-50.146°
Doppler factor1
Orbital elements
Apogee altitude861.745 km
Perigee altitude813.844 km
Semi-major axis7,215.932 km
Eccentricity0.0033191
Inclination98.7463°
RAAN22.6825°
Arg. of periapsis345.9375°
True anomaly14.18015°
Mean anomaly14.0872°
Eccentric anomaly14.13364°
Mean motion3.54083 °/min
BSTAR0.0041787
Orbital period101.67 mins
Loading maneuver chart data...
Loading historical data...
Loading historical data...
Loading historical data...
Loading historical data...
Loading historical data...
Loading historical data...
Loading historical data...

NOAA 16 DEB Visibility forecast

Observer location: undefined°, undefined

Span
Click to sort rows by Start time (UTC) header in descending order
Start Az.
Max El. time (UTC)
Max El. Az.
Max El.
End time (UTC)
End Az.
7 mins2024-12-02 15:05:25.115Z46.794° ENE2024-12-02 15:09:25.115Z93.633° ESE18.966°2024-12-02 15:12:25.115Z131.263° SE
9 mins2024-12-02 16:46:25.115Z357.726° N2024-12-02 16:50:25.115Z276.806° WNW38.334°2024-12-02 16:55:25.115Z213.823° SW
8 mins2024-12-03 02:30:25.115Z122.159° SE2024-12-03 02:34:25.115Z59.157° ENE27.967°2024-12-03 02:38:25.115Z7.871° NNE
7 mins2024-12-03 04:11:25.115Z213.749° SW2024-12-03 04:14:25.115Z262.28° W27.497°2024-12-03 04:18:25.115Z320.54° NNW
|